Cloud_Cover
100 100 100 22 100 100 100 100 100 100 100 100 100 11 42 94 15 90 100 100 96 100 100 100 100 69 37 5 5 3 0 0 0 0 0 0 0 0 0 0 0 0 0
100 100 100 100 100 99 77 68 100 100 100 83 100 100 82 6 70 94 89 58 73 34 61 48 43 53 9 5 3 0 0 0 0 0 0 0 0 0 0 0 0 0 0
100 100 100 100 100 97 31 64 100 100 100 100 100 100 100 28 5 5 5 5 5 15 5 22 31 5 5 1 0 0 0 0 0 0 0 0 0 0 0 0 0 0 0
100 100 100 100 100 73 43 77 97 100 100 100 99 4 100 5 5 5 5 5 5 5 5 5 5 1 0 0 0 0 0 0 0 0 0 0 0 0 0 0 0 0 0
24 61 100 100 100 100 12 5 84 100 100 100 65 100 97 0 5 4 5 0 0 0 0 0 0 0 0 0 0 0 0 0 0 0 0 0 0 0 0 0 0 0 0
9 28 98 100 100 62 95 5 5 61 85 6 98 28 0 0 0 0 0 0 0 0 0 0 0 0 0 0 0 0 0 0 0 0 0 1 0 0 0 0 0 0 0
5 59 66 100 100 74 100 36 5 5 5 24 1 0 0 0 0 0 0 0 0 0 0 0 0 0 0 0 0 0 0 0 0 3 0 0 3 1 2 4 0 0 0
5 5 63 59 100 100 97 100 76 92 30 5 1 0 0 0 0 0 0 0 0 0 0 0 0 0 0 0 0 0 0 0 5 7 8 23 27 33 20 34 64 71 0
0 5 5 5 5 100 100 100 100 78 94 5 0 0 0 0 0 0 0 0 0 0 0 3 0 0 0 0 0 0 0 0 3 0 8 6 13 51 100 90 100 100 90
5 5 5 0 5 93 100 97 48 5 23 4 0 0 0 0 0 0 0 0 2 5 5 3 0 0 0 0 0 0 0 0 0 0 2 28 21 58 100 100 100 100 100
0 2 1 2 0 36 26 44 37 49 20 3 0 0 0 0 0 5 4 5 5 5 0 3 5 0 0 0 0 0 0 0 0 0 0 1 15 28 36 100 100 100 100
0 0 0 0 0 0 1 5 100 75 7 100 72 5 1 0 0 5 1 5 0 3 5 5 5 0 0 0 0 0 0 0 0 0 0 1 5 4 21 56 98 100 100
0 0 0 0 0 0 0 5 97 5 99 44 6 5 4 0 0 0 0 0 1 0 0 1 0 0 0 0 0 0 0 0 0 0 0 5 5 5 3 0 0 32 72
1 0 0 0 0 0 0 4 100 100 8 67 8 5 2 0 0 1 5 5 0 0 3 0 0 0 0 0 0 0 0 0 1 5 5 2 5 22 5 4 5 3 1
0 0 0 0 0 0 0 0 29 100 100 35 3 4 0 5 5 5 5 2 0 1 0 0 0 0 0 0 2 4 6 7 5 5 5 5 8 54 71 94 75 26 57
0 0 0 0 0 0 0 5 40 77 5 5 5 5 5 5 5 5 0 0 0 0 0 0 0 5 4 5 3 5 13 18 7 90 88 50 32 26 36 44 5 32 98
0 0 0 0 0 0 0 0 5 5 5 5 5 5 5 4 0 0 0 0 0 0 0 0 3 3 5 5 54 100 100 100 99 66 36 95 16 41 6 6 5 9 87
0 0 4 2 0 0 3 5 4 2 0 3 1 0 0 1 5 0 0 3 1 3 16 12 5 13 99 100 100 94 83 92 87 81 100 96 83 60 88 76 36 6 31
5 5 5 5 4 0 0 0 0 0 0 0 0 3 5 3 3 4 5 5 5 5 5 87 98 90 100 99 100 100 100 84 100 99 94 95 68 21 92 100 93 11 10
0 0 0 0 0 0 0 0 0 0 4 5 5 5 5 5 5 6 56 68 23 78 44 48 84 100 100 100 100 100 100 100 100 100 100 99 100 100 100 100 81 78 67
4 5 2 0 0 0 2 1 3 5 1 2 4 12 28 58 64 46 84 100 100 100 100 100 100 100 100 100 100 100 100 100 100 100 100 100 100 100 100 97 62 95 91
5 4 5 5 0 1 3 10 39 20 43 44 57 39 16 65 96 100 100 100 100 100 100 100 100 100 100 100 100 100 100 100 100 100 100 100 100 100 100 97 93 25 37
94 96 74 59 12 63 60 89 99 100 96 94 97 100 100 100 100 100 100 100 100 100 100 100 100 100 100 100 100 100 100 100 100 100 100 100 100 100 100 99 89 100 100
100 100 99 100 100 100 100 100 100 100 100 100 100 100 100 100 100 100 100 100 100 100 100 100 100 100 100 100 100 100 100 100 100 100 100 100 100 100 100 100 100 100 100
100 100 100 100 100 100 100 100 100 100 100 100 100 100 100 100 100 100 100 100 100 100 100 100 100 100 100 100 100 100 100 100 100 100 100 100 100 100 100 100 100 96 71
100 100 100 96 97 94 88 96 94 100 100 100 100 100 100 100 100 100 100 100 100 100 100 100 100 100 100 100 100 100 100 100 100 100 100 100 80 55 72 63 66 91 100